CHOMPTT
1 43855U 18104G 20232.77463276 .00000799 00000-0 32045-4 0 9993
2 43855 85.0390 133.3263 0017573 171.0983 189.0575 15.23063876 93160
ISAT
1 43879U 18111D 20233.76473784 .00000695 00000-0 66572-4 0 9999
2 43879 97.6968 140.1468 0014214 35.4149 324.8014 14.96282474 88094
UWE-4
1 43880U 18111E 20232.99905575 -.00000027 00000-0 26931-5 0 9999
2 43880 97.6976 139.6975 0013236 38.0687 322.1468 14.96526147 87990
Sparrow
1 43881U 18111F 20233.71502957 -.00000164 00000-0 -92859-5 0 9993
2 43881 97.6988 140.4833 0013596 34.0625 326.1467 14.96573202 88105
Lume 1
1 43908U 18111AJ 20233.74199217 .00000763 00000-0 33106-4 0 9999
2 43908 97.2585 131.7657 0019428 276.8637 83.0391 15.25147666 91822
FO-98
1 43933U 19003B 20232.89382211 .00000560 00000-0 27233-4 0 9990
2 43933 097.2250 280.1864 0018427 023.8390 336.3696 15.22190741088188
FO-99
1 43937U 19003F 20233.22841636 .00000954 00000-0 41319-4 0 9991
2 43937 97.2214 281.9325 0023929 3.6050 356.5355 15.24518713 88355
Delphini 1
1 44030U 98067PW 20233.03165062 .00019060 00000-0 17035-3 0 9999
2 44030 51.6350 351.3910 0004050 331.9615 28.1163 15.68410626 88480
MYSat 1
1 44045U 18092F 20233.76338320 .00001883 00000-0 61959-4 0 9993
2 44045 51.6392 89.9640 0011089 193.6230 166.4456 15.36945053 85178
AstroCast 0.2
1 44083U 19018F 20233.73492500 .00000485 00000-0 24491-4 0 9999
2 44083 97.4162 293.8760 0011787 311.8701 48.1528 15.21681624 77154
AISTechSat 3
1 44103U 19018AB 20233.87444321 .00000578 00000-0 27339-4 0 9992
2 44103 97.4031 294.2230 0012637 327.4234 93.5160 15.23252230 77243
AISat 1
1 44104U 19018AC 20233.08747812 .00000546 00000-0 19962-4 0 9995
2 44104 97.4600 303.1497 0057622 348.5692 11.4236 15.31154564 77542
Raavana-1
1 44329U 98067QE 20232.67743711 .00010654 00000-0 14055-3 0 9991
2 44329 51.6404 16.9556 0005267 239.9643 120.0828 15.58986421 66868
Uguisu
1 44330U 98067QF 20233.65524903 .00009795 00000-0 13014-3 0 9990
2 44330 51.6384 12.2163 0005189 243.8954 116.1505 15.58904547 66993
NepaliSat-1
1 44331U 98067QG 20232.86145501 .00010092 00000-0 13340-3 0 9990
2 44331 051.6381 015.9176 0005236 244.0902 115.9551 15.59004144066885
Prox-1
1 44339U 19036A 20233.82483809 .00000811 00000-0 14238-3 0 9995
2 44339 24.0006 66.8188 0010752 137.0084 223.1249 14.53075503 61500
Oculus-ASR
1 44348U 19036K 20232.94198025 .00009528 00000-0 13844-3 0 9996
2 44348 28.5192 326.6243 0362891 265.5054 90.4003 15.03574107 63361
Armadillo
1 44352U 19036P 20232.56884967 .00013752 00000-0 19895-3 0 9992
2 44352 28.5345 323.0665 0348754 270.3582 85.7060 15.06773326 63319
NO-104
1 44354U 19036R 20232.56492073 .00010271 00000-0 14695-3 0 9993
2 44354 28.5335 325.8451 0359586 265.5129 90.4307 15.04631551 63320
NO-103
1 44355U 19036S 20233.45316001 .00018763 00000-0 25585-3 0 9993
2 44355 28.5324 307.6651 0334193 295.0958 61.5310 15.11085428 63589
CP9
1 44360U 19036X 20232.48083350 .00029254 -60242-5 31652-3 0 9998
2 44360 028.5138 294.8868 0311187 316.8903 040.7709 15.19529706063519
Move-IIb
1 44398U 19038N 20233.79654253 .00000835 00000-0 51564-4 0 9991
2 44398 97.5409 194.2293 0023390 266.1389 93.7168 15.12444156 62304
SONATE
1 44400U 19038Q 20233.78165088 .00000368 00000-0 25152-4 0 9992
2 44400 97.5451 194.2249 0023504 264.6016 95.2532 15.12010899 62296
BeeSat 9
1 44412U 19038AC 20233.44990545 .00000663 00000-0 41820-4 0 9990
2 44412 97.5435 194.0045 0020958 271.6391 88.2439 15.12387540 61946
JAISAT-1
1 44419U 19038F 20233.78046603 .00000651 00000-0 40633-4 0 9999
2 44419 97.5437 194.6443 0019818 269.3321 90.5639 15.12871586 62322
LightSail-2
1 44420U 19036AC 20232.85966605 .00004426 00000-0 93493-3 0 9994
2 44420 24.0068 67.0099 0011178 133.4264 226.7159 14.56174399 59564
Taurus 1
1 44530U 19059C 20233.76026024 .00001123 00000-0 33028-3 0 9993
2 44530 98.5679 315.4625 0014098 332.8347 27.2085 14.45593480 49639
MO-106
1 44830U 19084G 20233.77390264 .00085705 45361-5 32608-3 0 9990
2 44830 96.9616 103.8571 0016086 352.2400 7.8621 15.87441779 40629
TRSI-Sat
1 44831U 19084H 20233.10429156 .00088717 46884-5 35020-3 0 9999
2 44831 96.9608 103.1462 0016847 355.3389 4.7723 15.86663047 40529
MO-105
1 44832U 19084J 20233.68610640 .00117974 70067-5 37952-3 0 9997
2 44832 96.9610 104.1378 0013359 350.9489 9.1543 15.90825359 40639
Duchifat 3
1 44854U 19089C 20233.83711653 .00000142 00000-0 17898-4 0 9990
2 44854 36.9657 77.8449 0008519 234.3039 125.6926 14.99104557 37960
OPS-SAT
1 44878U 19092F 20233.41404382 .00000794 00000-0 45212-4 0 9996
2 44878 97.4704 55.6081 0015312 130.6617 229.5949 15.15582512 37224
TO-108
1 44881U 19093C 20233.76300803 -.00000050 00000-0 40962-6 0 9997
2 44881 97.9555 309.3697 0014673 183.4694 176.6428 14.81416762 36216
FloripaSat 1
1 44885U 19093G 20233.73373077 .00000140 00000-0 24361-4 0 9993
2 44885 97.9545 309.5456 0014269 194.2140 165.8675 14.82062460 36229
RS-44
1 44909U 19096E 20232.76518415 .00000040 00000-0 10716-3 0 9999
2 44909 082.5233 313.2495 0218446 078.5986 283.9565 12.79707609030285
SwampSat-2
1 45115U 19071E 20232.97610731 .00009686 00000-0 27962-3 0 9995
2 45115 51.6418 54.6127 0011646 288.6125 71.3593 15.36277959 30889
HO-107
1 45119U 19071J 20233.77660608 .00001364 00000-0 52562-4 0 9996
2 45119 51.6444 52.4274 0011591 286.5607 73.4102 15.33750328 30996
Phoenix
1 45258U 98067RB 20233.03714815 .00004075 00000-0 75830-4 0 9996
2 45258 51.6420 30.6024 0005776 214.5742 145.4872 15.51319713 28343
AztechSat-1
1 45261U 98067RE 20233.78722958 .00007821 00000-0 13182-3 0 9992
2 45261 51.6421 25.8706 0007308 237.3718 122.6567 15.52680465 28490
QARMAN
1 45263U 98067RG 20233.46571297 .00006590 00000-0 11546-3 0 9991
2 45263 51.6421 28.2203 0006845 231.8049 128.2325 15.51888583 28474
Quetzal 1
1 45598U 98067RL 20232.73780486 .00006170 00000-0 11215-3 0 9990
2 45598 51.6430 33.1087 0002635 327.2828 32.7998 15.50973964 17614
BY70-2
1 45857U 20042B 20233.77688401 .00000648 00000-0 10093-3 0 9992
2 45857 98.0112 306.4014 0012915 101.7613 258.5049 14.76261069 7188
/EX
1
0
SB KEPS @ AMSAT $ORB20226.N
2Line Orbital Elements 20226.AMSAT
HR AMSAT ORBITAL ELEMENTS FOR AMATEUR SATELLITES IN NASA FORMAT
FROM WA5QGD FORT WORTH,TX August 13, 2020
BID: ORB20226.N
DECODE 2-LINE ELSETS WITH THE FOLLOWING KEY:
1 AAAAAU 00 0 0 BBBBB.BBBBBBBB .CCCCCCCC 00000-0 00000-0 0 DDDZ
2 AAAAA EEE.EEEE FFF.FFFF GGGGGGG HHH.HHHH III.IIII JJ.JJJJJJJJKKKKKZ
KEY: A-CATALOGNUM B-EPOCHTIME C-DECAY D-ELSETNUM E-INCLINATION F-RAAN
G-ECCENTRICITY H-ARGPERIGEE I-MNANOM J-MNMOTION K-ORBITNUM Z-CHECKSUM
TO ALL RADIO AMATEURS BT
AO-07
1 07530U 74089B 20226.20693671 -.00000031 00000-0 90672-4 0 9992
2 07530 101.8041 195.6409 0011768 255.0996 116.4662 12.53644587 93345
UO-11
1 14781U 84021B 20226.76894014 .00000044 00000-0 11512-4 0 9999
2 14781 97.5901 235.8912 0008982 23.0176 337.1440 14.83183928961320
LO-19
1 20442U 90005G 20226.55982517 -.00000018 00000-0 98855-5 0 9990
2 20442 98.6951 174.0129 0011641 352.7510 7.3504 14.32958243596798
HUBBLE
1 20580U 90037B 20226.28115193 .00000369 00000-0 11425-4 0 9991
2 20580 028.4700 303.7973 0002684 348.8285 053.9591 15.09416841464564
MET-2/21
1 22782U 93055A 20226.19923505 .00000057 00000-0 38104-4 0 9991
2 22782 82.5501 188.5522 0023889 76.7487 294.4373 13.83827285361160
AO-27
1 22825U 93061C 20226.25452349 -.00000008 00000-0 14907-4 0 9998
2 22825 098.9246 230.1391 0007877 205.2384 154.8414 14.30090319401935
